{"data":{"norad_id":66946,"epoch":"2026-05-24T22:15:59.379840Z","epoch_age_seconds":75080,"freshness":"FRESH","line1":"1 66946U 25286X   26144.92777060  .00019976  00000+0  60075-3 0  9991","line2":"2 66946  53.1625   4.0116 0001138  89.1503 270.9630 15.34401710 27097","mean_motion":15.3440171,"eccentricity":0.0001138,"inclination_deg":53.1625,"raan_deg":4.0116,"arg_perigee_deg":89.1503,"mean_anomaly_deg":270.963,"bstar":0.00060075,"rev_number":2709,"period_min":93.847653493556,"perigee_km":461.91967069051,"apogee_km":463.47664477241,"semimajor_km":6840.8351577315,"source":"CELESTRAK","updated_at":"2026-05-25T13:38:21.390306Z"}}